Philadelphia, PA

4:55 AM EST on December 15, 2019 (GMT -0500)
Philadelphia International

Weather History for KPHL - June, 2019

Change the Weather History Date:

Tuesday, June 11, 2019

  Actual Average Record
Temperature  
Mean Temperature 73 °F 72 °F  
Max Temperature 80 °F 82 °F 95 °F (1986)
Min Temperature 65 °F 63 °F 44 °F (1972)
Degree Days  
Heating Degree Days 0 0  
Month to date heating degree days 1 9  
Since 1 June heating degree days 1 9  
Since 1 July heating degree days 4360 4611  
Cooling Degree Days 8 7  
Month to date cooling degree days 81 69  
Year to date cooling degree days 231 160  
Since 1 June cooling degree days 81 69  
Growing Degree Days 23 (Base 50)    
Moisture  
Dew Point 59 °F    
Average Humidity 62    
Maximum Humidity 93    
Minimum Humidity 30    
Precipitation  
Precipitation 0.18 in 0.11 in 2.04 in (1958)
Month to date precipitation 1.44 1.33  
Year to date precipitation 20.72 18.07  
Snow  
Snow 0.00 in 0.00 in 0.00 in ()
Month to date snowfall 0.0 0.0  
Since 1 June snowfall 0.0 0.0  
Since 1 July snowfall 17.1 22.4  
Snow Depth 0.00 in    
Sea Level Pressure  
Sea Level Pressure 29.91 in    
Wind  
Wind Speed 14 mph (WNW)    
Max Wind Speed 25 mph    
Max Gust Speed 35 mph    
Visibility 8 miles    
Events Rain    
T = Trace of Precipitation, MM = Missing Value Source: NWS Daily Summary

Daily Weather History Graph

Daily Weather History Graph

Search for Another Location

Airport or City:

Astronomy

Jun. 11, 2019 Rise Set
Actual Time 5:32 AM EDT 8:29 PM EDT
Civil Twilight 4:59 AM EDT 9:01 PM EDT
Nautical Twilight 4:18 AM EDT 9:43 PM EDT
Astronomical Twilight 3:30 AM EDT 10:31 PM EDT
Moon 2:26 PM EDT (6/11) 2:13 AM EDT (6/11)
Length of Visible Light 16h 02m
Length of Day
14h 57m
Waxing Gibbous, 66% of the Moon is Illuminated
Jun 11
Waxing Gibbous
Jun 17
Full
Jun 25
Last Quarter
Jul 2
New
Jul 9
First Quarter

Hourly Weather History & Observations

Time (EDT) Temp. Dew Point Humidity Pressure Visibility Wind Dir Wind Speed Gust Speed Precip Events Conditions
12:25 AM 73.9 °F 72.0 °F 93% 29.84 in 7.0 mi South 8.1 mph - N/A   Overcast
12:35 AM 73.9 °F 72.0 °F 93% 29.84 in 5.0 mi South 8.1 mph - N/A   Overcast
12:47 AM 73.9 °F 72.0 °F 93% 29.84 in 6.0 mi South 9.2 mph - N/A   Overcast
12:54 AM 73.9 °F 72.0 °F 93% 29.84 in 6.0 mi South 8.1 mph - N/A   Overcast
1:46 AM 73.9 °F 72.0 °F 93% 29.83 in 6.0 mi SW 8.1 mph - N/A   Overcast
1:54 AM 73.9 °F 72.0 °F 93% 29.83 in 6.0 mi SW 9.2 mph - N/A   Overcast
2:15 AM 73.9 °F 72.0 °F 93% 29.82 in 5.0 mi SW 6.9 mph - 0.00 in Rain Light Rain
2:30 AM 73.9 °F 72.0 °F 93% 29.82 in 3.0 mi SW 8.1 mph - 0.00 in Rain Rain
2:41 AM 73.9 °F 72.0 °F 93% 29.82 in 4.0 mi West 8.1 mph - 0.10 in Rain Light Rain
2:54 AM 73.9 °F 72.0 °F 93% 29.81 in 4.0 mi West 5.8 mph - 0.13 in Rain Light Rain
3:03 AM 73.0 °F 72.0 °F 96% 29.81 in 5.0 mi West 6.9 mph - 0.00 in   Overcast
3:13 AM 73.0 °F 72.0 °F 96% 29.81 in 6.0 mi West 8.1 mph - 0.00 in   Overcast
3:18 AM 73.0 °F 72.0 °F 96% 29.82 in 4.0 mi West 9.2 mph - 0.00 in Rain Light Rain
3:29 AM 72.0 °F 68.0 °F 87% 29.82 in 7.0 mi WNW 16.1 mph 24.2 mph 0.01 in   Overcast
3:38 AM 71.1 °F 66.9 °F 87% 29.82 in 9.0 mi WNW 15.0 mph - 0.01 in   Overcast
3:54 AM 71.1 °F 66.0 °F 84% 29.82 in 9.0 mi NW 13.8 mph - 0.02 in   Overcast
4:01 AM 71.1 °F 66.0 °F 84% 29.82 in 10.0 mi NW 15.0 mph - 0.00 in Rain Light Rain
4:54 AM 70.0 °F 64.9 °F 84% 29.84 in 10.0 mi NW 9.2 mph - 0.02 in   Overcast
5:26 AM 69.1 °F 64.9 °F 87% 29.85 in 10.0 mi WNW 10.4 mph - 0.01 in   Overcast
5:54 AM 69.1 °F 64.0 °F 84% 29.87 in 10.0 mi NW 10.4 mph - 0.01 in   Overcast
6:49 AM 68.0 °F 62.6 °F 83% 29.91 in 10.0 mi NW 16.1 mph 23.0 mph 0.00 in   Overcast
6:54 AM 68.0 °F 61.0 °F 78% 29.91 in 10.0 mi NW 15.0 mph - 0.00 in   Overcast
7:54 AM 66.0 °F 57.9 °F 75% 29.94 in 10.0 mi NW 23.0 mph 29.9 mph N/A   Overcast
8:37 AM 66.0 °F 55.9 °F 70% 29.95 in 10.0 mi NNW 15.0 mph 23.0 mph N/A   Overcast
8:54 AM 66.0 °F 55.0 °F 68% 29.96 in 10.0 mi NNW 18.4 mph 26.5 mph N/A   Mostly Cloudy
9:54 AM 66.9 °F 53.1 °F 61% 29.97 in 10.0 mi NNW 18.4 mph - N/A   Mostly Cloudy
10:54 AM 68.0 °F 52.0 °F 56% 29.99 in 10.0 mi NNW 16.1 mph - N/A   Scattered Clouds
11:54 AM 72.0 °F 51.1 °F 48% 29.97 in 10.0 mi NW 15.0 mph - N/A   Scattered Clouds
12:54 PM 75.0 °F 50.0 °F 41% 29.98 in 10.0 mi WNW 16.1 mph 27.6 mph N/A   Partly Cloudy
1:54 PM 77.0 °F 48.0 °F 36% 29.97 in 10.0 mi NNW 19.6 mph 28.8 mph N/A   Partly Cloudy
2:54 PM 78.1 °F 46.9 °F 33% 29.99 in 10.0 mi NNW 20.7 mph 29.9 mph N/A   Partly Cloudy
3:54 PM 79.0 °F 46.0 °F 31% 30.00 in 10.0 mi NNW 20.7 mph 29.9 mph N/A   Partly Cloudy
4:54 PM 79.0 °F 46.9 °F 32% 30.00 in 10.0 mi NNW 18.4 mph - N/A   Partly Cloudy
5:54 PM 79.0 °F 45.0 °F 30% 30.00 in 10.0 mi North 16.1 mph 26.5 mph N/A   Partly Cloudy
6:54 PM 77.0 °F 44.1 °F 31% 30.02 in 10.0 mi North 16.1 mph - N/A   Partly Cloudy
7:54 PM 75.0 °F 44.1 °F 33% 30.02 in 10.0 mi North 11.5 mph - N/A   Mostly Cloudy
8:54 PM 73.0 °F 44.1 °F 35% 30.04 in 10.0 mi North 9.2 mph - N/A   Mostly Cloudy
9:54 PM 70.0 °F 45.0 °F 41% 30.08 in 10.0 mi North 6.9 mph - N/A   Scattered Clouds
10:54 PM 70.0 °F 45.0 °F 41% 30.10 in 10.0 mi North 9.2 mph - N/A   Mostly Cloudy
11:54 PM 69.1 °F 45.0 °F 42% 30.10 in 10.0 mi North 11.5 mph - N/A   Scattered Clouds